![]() |
EMODnet Physics ERDDAP
Easier access to scientific data |
log in|
Brought to you by EMODnet Physics |
| Dataset Title: | NDBC - Collection of dew point temperature (DEWT) TimeSeries - IN SITU MultiPointTimeSeriesObservation
|
| Institution: | NDBC (Dataset ID: TS_DEWT_NDBC) |
| Information: | Summary
| License
| FGDC
| ISO 19115
| Metadata
| Background
| Subset
| Data Access Form
| Make a graph
|
| Name | Last modified | Size | Description | |
|---|---|---|---|---|
| Parent Directory | - | - | ||
| 42043_TS_DEWT_012008.nc | 01-Jan-2025 23:12 | 1467225 | ||
| 42043_TS_DEWT_012010.nc | 01-Jan-2025 23:15 | 1470504 | ||
| 42043_TS_DEWT_012011.nc | 01-Jan-2025 23:16 | 1156773 | ||
| 42043_TS_DEWT_022007.nc | 01-Jan-2025 23:10 | 912809 | ||
| 42043_TS_DEWT_022010.nc | 01-Jan-2025 23:15 | 1464908 | ||
| 42043_TS_DEWT_022011.nc | 01-Jan-2025 23:17 | 1470639 | ||
| 42043_TS_DEWT_022012.nc | 01-Jan-2025 23:18 | 1468289 | ||
| 42043_TS_DEWT_022017.nc | 01-Jan-2025 23:23 | 1470019 | ||
| 42043_TS_DEWT_032008.nc | 01-Jan-2025 23:12 | 1471465 | ||
| 42043_TS_DEWT_032010.nc | 01-Jan-2025 23:15 | 1477589 | ||
| 42043_TS_DEWT_032011.nc | 01-Jan-2025 23:17 | 1148199 | ||
| 42043_TS_DEWT_032012.nc | 01-Jan-2025 23:18 | 1472971 | ||
| 42043_TS_DEWT_032013.nc | 01-Jan-2025 23:20 | 1465051 | ||
| 42043_TS_DEWT_032017.nc | 01-Jan-2025 23:23 | 599676 | ||
| 42043_TS_DEWT_042008.nc | 01-Jan-2025 23:12 | 1158711 | ||
| 42043_TS_DEWT_042010.nc | 01-Jan-2025 23:15 | 1151283 | ||
| 42043_TS_DEWT_042011.nc | 01-Jan-2025 23:17 | 1469575 | ||
| 42043_TS_DEWT_042012.nc | 01-Jan-2025 23:19 | 916749 | ||
| 42043_TS_DEWT_042013.nc | 01-Jan-2025 23:20 | 1460677 | ||
| 42043_TS_DEWT_052010.nc | 01-Jan-2025 23:15 | 1476305 | ||
| 42043_TS_DEWT_052011.nc | 01-Jan-2025 23:17 | 1475657 | ||
| 42043_TS_DEWT_052012.nc | 01-Jan-2025 23:19 | 1477409 | ||
| 42043_TS_DEWT_062009.nc | 01-Jan-2025 23:14 | 1468651 | ||
| 42043_TS_DEWT_062010.nc | 01-Jan-2025 23:15 | 1476165 | ||
| 42043_TS_DEWT_062011.nc | 01-Jan-2025 23:17 | 1469889 | ||
| 42043_TS_DEWT_062012.nc | 01-Jan-2025 23:19 | 1627490 | ||
| 42043_TS_DEWT_062017.nc | 01-Jan-2025 23:23 | 1464081 | ||
| 42043_TS_DEWT_072006.nc | 01-Jan-2025 23:09 | 1458769 | ||
| 42043_TS_DEWT_072008.nc | 01-Jan-2025 23:12 | 1477324 | ||
| 42043_TS_DEWT_072010.nc | 01-Jan-2025 23:16 | 1144346 | ||
| 42043_TS_DEWT_072011.nc | 01-Jan-2025 23:17 | 917801 | ||
| 42043_TS_DEWT_072012.nc | 01-Jan-2025 23:19 | 1162322 | ||
| 42043_TS_DEWT_082006.nc | 01-Jan-2025 23:10 | 1465789 | ||
| 42043_TS_DEWT_082008.nc | 01-Jan-2025 23:12 | 600141 | ||
| 42043_TS_DEWT_082010.nc | 01-Jan-2025 23:16 | 1461165 | ||
| 42043_TS_DEWT_082011.nc | 01-Jan-2025 23:17 | 1473435 | ||
| 42043_TS_DEWT_082012.nc | 01-Jan-2025 23:19 | 1471879 | ||
| 42043_TS_DEWT_082015.nc | 01-Jan-2025 23:22 | 1476552 | ||
| 42043_TS_DEWT_082016.nc | 01-Jan-2025 23:22 | 1472868 | ||
| 42043_TS_DEWT_092006.nc | 01-Jan-2025 23:10 | 1472177 | ||
| 42043_TS_DEWT_092008.nc | 01-Jan-2025 23:12 | 1470644 | ||
| 42043_TS_DEWT_092010.nc | 01-Jan-2025 23:16 | 1466728 | ||
| 42043_TS_DEWT_092011.nc | 01-Jan-2025 23:18 | 1460084 | ||
| 42043_TS_DEWT_092012.nc | 01-Jan-2025 23:19 | 1159889 | ||
| 42043_TS_DEWT_092016.nc | 01-Jan-2025 23:23 | 1465594 | ||
| 42043_TS_DEWT_102006.nc | 01-Jan-2025 23:10 | 1458286 | ||
| 42043_TS_DEWT_102008.nc | 01-Jan-2025 23:12 | 1147088 | ||
| 42043_TS_DEWT_102010.nc | 01-Jan-2025 23:16 | 904341 | ||
| 42043_TS_DEWT_102011.nc | 01-Jan-2025 23:18 | 915182 | ||
| 42043_TS_DEWT_102012.nc | 01-Jan-2025 23:19 | 602537 | ||
| 42043_TS_DEWT_112006.nc | 01-Jan-2025 23:10 | 1151881 | ||
| 42043_TS_DEWT_112008.nc | 01-Jan-2025 23:13 | 1474415 | ||
| 42043_TS_DEWT_112010.nc | 01-Jan-2025 23:16 | 1476721 | ||
| 42043_TS_DEWT_112011.nc | 01-Jan-2025 23:18 | 1625917 | ||
| 42043_TS_DEWT_112012.nc | 01-Jan-2025 23:20 | 1470086 | ||
| 42043_TS_DEWT_122007.nc | 01-Jan-2025 23:11 | 1476228 | ||
| 42043_TS_DEWT_122008.nc | 01-Jan-2025 23:13 | 1475423 | ||
| 42043_TS_DEWT_122009.nc | 01-Jan-2025 23:14 | 1469509 | ||
| 42043_TS_DEWT_122010.nc | 01-Jan-2025 23:16 | 1164799 | ||